Regional Weather Roundup
Issued by NWS Albany, NY

Home | Current Version | Previous Version | Text Only | Print | Product List | Glossary On
Versions: 1 2 3 4 5 6 7 8 9 10 11 12 13 14 15 16 17 18 19 20 21 22 23 24 25 26 27 28 29 30 31 32 33 34 35 36 37 38 39 40 41 42 43 44 45 46 47 48 49 50
643
ASUS41 KALY 231710
RWRALY

NEW YORK STATE HOURLY WEATHER ROUNDUP
NATIONAL WEATHER SERVICE ALBANY NY
100 PM EDT MON MAY 23 2016

NOTE: "FAIR" INDICATES FEW OR NO CLOUDS BELOW 12,000 FEET WITH NO
SIGNIFICANT WEATHER AND/OR NO OBSTRUCTIONS TO VISIBILITY.

NYZ032-033-038>043-046>054-057>066-NYZ062>081-082-084-231800-
EAST


CITY           SKY/WX    TMP DP  RH WIND       PRES   REMARKS
ALBANY         MOSUNNY   78  47  33 NE15      29.92F
GLENS FALLS    SUNNY     79  44  28 NE13      29.92F
POUGHKEEPSIE   MOSUNNY   79  53  40 NW9G17    29.89F
NEWBURGH       MOSUNNY   75  57  53 E12G21    29.93S
MONTGOMERY     SUNNY     77  53  43 E8        29.91S
WHITE PLAINS   SUNNY     72  53  51 S7        29.90F
ISLIP          MOSUNNY   70  50  49 SE7       29.91F
NEW YORK CITY  PTSUNNY   74  57  55 NE7       29.90F
CENTRAL PARK   SUNNY     76  51  41 CALM      29.93F
$$

NYZ005>009-017-018-044>046-055-056-231800-
CENTRAL


CITY           SKY/WX    TMP DP  RH WIND       PRES   REMARKS
FULTON         SUNNY     77  49  37 NW12      30.00F
SYRACUSE       MOSUNNY   77  49  37 NW9       29.97F
ROME           SUNNY     75  56  51 W12       29.96F
ELMIRA         SUNNY     77  46  33 NE15      29.97F
BINGHAMTON     MOSUNNY   73  46  38 NE10G21   29.97F
MONTICELLO     MOSUNNY   73  52  46 E9        29.95S
$$

NYZ026>034-041>043-087-231800-
NORTH


CITY           SKY/WX    TMP DP  RH WIND       PRES   REMARKS
WATERTOWN      SUNNY     76  50  40 W10       29.98F
FORT DRUM      NOT AVBL
MASSENA        SUNNY     77  42  28 CALM      29.98F
SARANAC LAKE   MOSUNNY   75  33  21 VRB6G18   29.96F
PLATTSBURGH    SUNNY     75  45  34 NE9       29.96F
$$

NYZ001>004-010>016-019>021-085-231800-
WEST


CITY           SKY/WX    TMP DP  RH WIND       PRES   REMARKS
NIAGARA FALLS  MOSUNNY   76  47  35 NW9       30.04F
BUFFALO        MOSUNNY   77  44  30 NE10      30.04F
DUNKIRK        SUNNY     66  40  38 NW8       30.07F
JAMESTOWN      MOSUNNY   72  43  35 N8G17     30.05F
WELLSVILLE     PTSUNNY   72  45  37 N12G18    30.05F
ROCHESTER      MOSUNNY   76  40  27 N10       30.03S
PENN YAN       SUNNY     75  45  34 VRB5      30.02F
$$

             KEY
       WCI = WIND CHILL INDEX
       VSB = VISIBILITY
       HX  = HEAT INDEX
$$




USA.gov is the U.S. government's official web portal to all federal, state and local government web resources and services.